192P/Shoemaker-Levy 1 (1990)

Japanese version
Home page
Total 6,336 html files since Dec. 4, 1995
Updated on October 27, 2007

---------------------------------------------------------------------

* Profile

Designation 192P/1990 V1
Discovery Date November 15, 1990
Magnitude 13 mag
Discoverers Carolyn and Eugene Shoemaker and David H. Levy (Palomar)

* Orbital Elements

                    Epoch = 1990 Sept.26.0 TT
     T = 1990 Sept.18.5921 TT         Peri. = 310.6225
     e = 0.771949                     Node  =  52.0443  2000.0
     q = 1.524077 AU                  Incl. =  24.3335
       a =  6.683058 AU    n = 0.0570481    P =  17.28 years

* Magnitudes Graph

        m1 = 9.0 + 5 log d + 25 log r(t - 50)

---------------------------------------------------------------------

The orbital elements are printed on IAUC 8879.
The magnitudes graphs are made with Comet for Windows.

---------------------------------------------------------------------

Copyright(C) 1995-2008 Seiichi Yoshida (comet@aerith.net). All rights reserved.